View from above orbital plane
|
View from above satellite
|
Ground track
|
The orbit data is extracted from the following two-line orbital elements,
1 00876U 64053A 21067.80080693 -.00000112 00000-0 52069-5 0 9991
2 00876 65.0587 247.2381 0154354 294.7629 63.7477 14.63786620 6566
Epoch (UTC): | 08 March 2021 19:13:09 |
Eccentricity: | 0.0154354 |
inclination: | 65.0587° |
perigee height: | 572 km |
apogee height: | 790 km |
right ascension of ascending node: | 247.2381° |
argument of perigee: | 294.7629° |
revolutions per day: | 14.63786620 |
mean anomaly at epoch: | 63.7477° |
orbit number at epoch: | 656 |
The dashed part of the orbit path shows where the satellite is in the earth's shadow,
|
|